Weather History for Jonesboro, AR

Change the Weather History Date:

Tuesday, January 14, 2014

  Actual Average Record
Temperature  
Mean Temperature 44 °F 37 °F  
Max Temperature 55 °F 46 °F 76 °F (1907)
Min Temperature 32 °F 29 °F 5 °F (1982)
Degree Days  
Heating Degree Days 21 28  
Month to date heating degree days 433 392  
Since 1 July heating degree days 1993 1834  
Cooling Degree Days 0 0  
Month to date cooling degree days 0 0  
Year to date cooling degree days 0 0  
Moisture  
Dew Point 27 °F    
Average Humidity 54    
Maximum Humidity 75    
Minimum Humidity 33    
Precipitation  
Precipitation T in 0.11 in 2.50 in (1918)
Month to date precipitation 2.11 1.54  
Year to date precipitation 2.11 1.54  
Snow  
Snow 0.00 in - 3.50 in (1968)
Month to date snowfall T  
Since 1 July snowfall 1.0  
Snow Depth 0.00 in    
Sea Level Pressure  
Sea Level Pressure 29.98 in    
Wind  
Wind Speed 8 mph (WNW)    
Max Wind Speed 20 mph    
Max Gust Speed 24 mph    
Visibility 10 miles    
Events      
T = Trace of Precipitation, MM = Missing Value Source: NWS Daily Summary

Daily Weather History Graph

Daily Weather History Graph

Search for Another Location

Airport:

Trip Planner

Search our weather history database for the weather conditions in past years. The results will help you decide how hot, cold, wet, or windy it might be!

Date:

Astronomy

Jan. 14, 2014 Rise Set
Actual Time 7:12 AM CST 5:11 PM CST
Civil Twilight 6:44 AM CST 5:39 PM CST
Nautical Twilight 6:12 AM CST 6:10 PM CST
Astronomical Twilight 5:42 AM CST 6:41 PM CST
Moon 4:15 PM CST (1/14) 5:47 AM CST (1/14)
Length of Visible Light 10h 54m
Length of Day
9h 59m
Waxing Gibbous, 98% of the Moon is Illuminated
Jan 14
Waxing Gibbous
Jan 15
Full
Jan 23
Last Quarter
Jan 30
New
Feb 6
First Quarter

Hourly Weather History & Observations

Time (CST) Temp. Windchill Dew Point Humidity Pressure Visibility Wind Dir Wind Speed Gust Speed Precip Events Conditions
12:53 AM 37.0 °F 34.5 °F 27.0 °F 67% 29.94 in 10.0 mi WNW 3.5 mph - N/A   Clear
1:53 AM 34.0 °F 29.8 °F 27.0 °F 75% 29.95 in 10.0 mi West 4.6 mph - N/A   Clear
2:53 AM 34.0 °F - 27.0 °F 75% 29.95 in 10.0 mi Calm Calm - N/A   Clear
3:53 AM 34.0 °F - 26.1 °F 73% 29.93 in 10.0 mi Calm Calm - N/A   Clear
4:53 AM 35.1 °F - 27.0 °F 72% 29.92 in 10.0 mi Calm Calm - N/A   Clear
5:53 AM 37.0 °F 33.3 °F 27.0 °F 67% 29.93 in 10.0 mi WSW 4.6 mph - N/A   Clear
6:53 AM 37.9 °F 34.4 °F 28.0 °F 68% 29.92 in 10.0 mi WSW 4.6 mph - N/A   Clear
7:53 AM 39.9 °F 35.8 °F 28.9 °F 65% 29.93 in 10.0 mi SSW 5.8 mph - N/A   Clear
8:53 AM 43.0 °F 37.2 °F 32.0 °F 65% 29.93 in 10.0 mi SW 10.4 mph - N/A   Clear
9:53 AM 46.0 °F 40.6 °F 33.1 °F 61% 29.92 in 10.0 mi SW 11.5 mph - N/A   Mostly Cloudy
10:53 AM 50.0 °F - 34.0 °F 54% 29.92 in 10.0 mi WSW 13.8 mph - N/A   Scattered Clouds
11:53 AM 53.1 °F - 33.1 °F 47% 29.91 in 10.0 mi WSW 16.1 mph 24.2 mph N/A   Clear
12:53 PM 55.0 °F - 30.9 °F 40% 29.89 in 10.0 mi West 15.0 mph - N/A   Mostly Cloudy
1:53 PM 54.0 °F - 28.9 °F 38% 29.91 in 10.0 mi NW 10.4 mph 17.3 mph N/A   Overcast
2:53 PM 53.1 °F - 33.1 °F 47% 29.94 in 10.0 mi NW 9.2 mph 19.6 mph 0.00 in   Overcast
3:53 PM 52.0 °F - 32.0 °F 47% 29.98 in 10.0 mi WNW 11.5 mph 20.7 mph N/A   Overcast
4:53 PM 51.1 °F - 33.1 °F 50% 30.01 in 10.0 mi NW 9.2 mph - N/A   Mostly Cloudy
5:53 PM 50.0 °F - 27.0 °F 41% 30.04 in 10.0 mi NW 12.7 mph - N/A   Clear
6:53 PM 48.0 °F - 25.0 °F 41% 30.08 in 10.0 mi NW 9.2 mph - N/A   Clear
7:53 PM 46.0 °F 43.1 °F 21.9 °F 39% 30.09 in 10.0 mi NW 5.8 mph - N/A   Clear
8:53 PM 45.0 °F 40.6 °F 19.9 °F 37% 30.12 in 10.0 mi NW 8.1 mph - N/A   Clear
9:53 PM 43.0 °F 37.7 °F 16.0 °F 34% 30.14 in 10.0 mi NW 9.2 mph - N/A   Clear
10:53 PM 39.9 °F 35.1 °F 16.0 °F 38% 30.14 in 10.0 mi NW 6.9 mph - N/A   Clear
11:53 PM 39.0 °F 34.0 °F 14.0 °F 36% 30.14 in 10.0 mi WNW 6.9 mph - N/A   Clear